SCP
0 0 -0 -0 -0 -0 -0 -0 -0 -0 0 -0 -0 -0 0 0 -0 -0 0 0 0 0 0 0 1 1 1 0 0 0 0 0 0 0 0 0 0 0 0 0 0 0 0 0
0 0 0 -0 -0 -0 -0 -0 -0 0 -0 -0 -0 0 0 -0 -0 -0 0 0 0 0 0 0 0 0 1 0 0 0 0 0 0 0 0 0 0 0 0 0 0 0 0 0
0 0 0 -0 -0 -0 -0 -0 -0 -0 -0 -0 -0 -0 -0 -0 -0 -0 -0 -0 0 0 0 0 0 0 0 1 0 0 0 0 0 0 0 0 0 0 0 0 0 0 0 0
0 0 0 0 0 0 0 -0 -0 -0 -0 -0 -0 0 -0 -0 -0 0 -0 -0 0 0 0 0 0 0 0 0 0 0 0 0 0 0 0 0 0 0 0 0 0 0 0 0
0 0 0 0 0 0 0 0 0 -0 -0 -0 -0 -0 0 -0 0 0 0 0 0 0 0 0 0 0 0 0 0 0 0 0 0 0 0 0 0 0 0 0 0 0 0 0
0 0 0 0 0 0 0 0 0 0 0 0 0 -0 -0 -0 0 -0 0 0 0 0 0 0 0 0 0 0 0 0 0 0 0 0 0 0 0 0 0 0 0 0 0 0
0 -0 0 0 0 0 0 0 0 0 0 0 0 0 0 0 0 0 0 0 0 0 0 0 0 0 0 0 0 0 0 0 0 0 0 0 0 0 0 0 0 0 0 0
0 -0 0 0 0 0 0 0 0 0 0 0 0 0 0 0 -0 0 -0 -0 -0 -0 -0 0 0 0 0 0 0 0 0 0 0 0 0 0 0 0 0 0 0 0 0 0
-0 -0 0 0 0 0 0 0 0 0 0 0 0 0 0 0 0 0 -0 -0 -0 -0 -0 -0 0 0 0 0 0 0 0 0 0 0 0 0 0 0 0 0 0 0 0 0
-0 0 0 0 0 0 0 0 0 0 0 0 0 0 0 0 0 0 0 0 0 -0 -0 -0 -0 0 0 0 0 0 0 0 0 0 0 0 0 0 0 0 0 0 0 0
-0 0 0 0 0 0 0 0 0 0 0 0 -0 -0 0 0 0 0 0 0 -0 0 0 0 -0 -0 0 0 0 0 0 0 0 0 0 0 0 0 0 0 0 0 0 0
-0 0 0 0 0 0 0 0 0 0 0 0 0 0 0 0 0 0 0 0 -0 -0 -0 -0 -0 -0 -0 -0 0 0 0 0 0 0 0 0 0 0 0 0 0 0 0 0
-0 -0 0 0 0 0 0 -0 -0 -0 -0 0 -0 0 0 0 -0 -0 -0 -0 0 0 -0 -0 -0 -0 -0 -0 -0 -0 0 0 0 0 0 0 0 0 0 0 0 0 0 0
-0 -0 -0 -0 -0 -0 0 -0 -0 -0 -0 -0 -0 -0 -0 0 -0 -0 -0 -0 -0 -0 0 0 -0 -0 -0 -0 -0 -0 -0 -0 0 0 0 0 0 0 0 0 0 0 0 0
0 0 0 0 0 -0 -0 -0 0 -0 -0 -0 -0 -0 -0 0 0 0 0 -0 -0 -0 -0 -0 -0 -0 -0 0 -0 -0 -0 -0 -0 -0 0 0 0 0 0 0 0 0 0 0
0 0 0 0 0 0 0 0 0 -0 -0 -0 -0 -0 -0 -0 -0 -0 -0 0 0 -0 -0 -0 -0 -0 -0 -0 0 0 0 0 -0 -0 -0 -0 -0 0 0 0 0 0 0 0
0 0 0 0 0 0 0 0 0 0 0 0 -0 -0 -0 -0 -0 -0 -0 -0 -0 -0 -0 -0 0 0 -0 -0 0 0 0 0 0 0 0 0 0 0 0 0 0 0 0 0
0 0 0 0 0 0 0 0 0 0 0 0 0 0 -0 -0 -0 -0 -0 -0 -0 -0 -0 -0 -0 -0 -0 0 0 0 0 0 0 0 0 0 0 0 0 0 0 0 0 0
0 0 0 0 0 0 0 0 0 0 0 0 0 0 0 0 0 0 -0 -0 -0 -0 -0 -0 -0 -0 -0 -0 -0 -0 -0 0 0 0 0 0 0 0 0 0 0 0 0 0
0 0 0 0 0 0 0 0 0 0 0 0 0 0 0 0 0 0 0 0 0 -0 -0 -0 -0 -0 -0 -0 -0 -0 -0 -0 -0 0 0 0 0 0 0 0 0 0 0 0
0 0 0 0 0 0 0 0 0 0 0 0 0 0 0 0 0 0 0 0 0 0 0 0 -0 -0 -0 -0 -0 -0 -0 -0 -0 0 0 0 0 0 0 0 0 0 0 0
0 0 0 0 0 0 0 0 0 0 0 0 0 0 0 0 0 0 0 0 0 0 0 0 0 0 -0 -0 -0 -0 -0 -0 -0 -0 -0 0 0 0 0 0 0 0 0 0
0 0 0 0 0 0 0 0 0 0 0 0 0 0 0 0 0 0 0 0 0 0 0 0 0 0 0 0 0 -0 -0 -0 -0 -0 -0 -0 0 0 0 0 0 0 0 0
0 0 0 0 0 0 0 0 0 0 0 0 0 0 0 0 0 0 0 0 0 0 0 0 0 0 0 0 0 0 0 0 0 0 0 0 0 0 0 0 0 0 0 0
0 0 0 0 0 0 0 0 0 0 0 0 0 0 0 0 0 0 0 0 0 0 0 0 0 0 0 0 0 0 0 0 0 0 0 0 0 0 0 0 0 0 0 0
0 0 0 0 0 0 0 0 0 0 0 0 0 0 0 0 0 0 0 0 0 0 0 0 0 0 0 0 0 0 0 0 0 0 0 0 0 0 0 0 0 0 0 0
0 0 0 0 0 0 0 0 0 0 0 0 0 0 0 0 0 0 0 0 0 0 0 0 0 0 0 0 0 0 0 0 0 0 0 0 0 0 0 0 0 0 0 0
Wind_Speed_500mb
38 28 42 55 59 57 55 30 19 24 20 43 43 39 41 48 60 62 67 65 63 56 33 5 32 45 60 65 70 76 80 102 101 86 68 69 75 98 106 107 96 97 91 85
11 12 29 55 49 54 49 47 32 23 17 40 52 33 50 57 62 64 70 67 64 54 39 22 13 37 50 56 61 69 88 97 105 95 79 67 80 112 107 102 98 99 99 86
6 23 16 44 48 32 41 42 30 31 36 47 39 33 44 62 67 72 72 66 64 59 43 29 12 17 38 51 58 68 80 87 94 91 84 76 85 104 107 93 94 99 98 91
7 13 20 12 31 18 19 39 43 36 38 45 48 30 43 76 78 77 74 63 60 59 41 32 15 13 28 43 54 55 73 80 88 90 71 73 84 91 101 107 99 102 97 93
7 21 6 38 46 20 9 35 42 39 48 56 68 34 42 94 90 76 69 61 58 52 42 35 23 3 17 32 41 64 65 80 93 87 70 56 71 80 95 107 105 103 99 93
13 15 22 26 48 66 18 27 63 61 53 57 59 34 30 90 81 76 75 67 64 67 54 42 36 27 6 25 33 43 56 62 74 88 80 72 57 75 88 99 105 101 103 99
23 14 11 23 48 40 36 16 60 57 55 52 33 41 50 69 81 83 83 79 78 84 85 70 54 45 34 13 10 26 28 54 58 70 78 93 81 76 90 95 98 103 98 92
11 11 13 37 21 20 15 27 40 46 50 50 47 51 62 70 79 93 98 97 99 100 95 84 77 71 64 41 16 19 38 54 57 57 69 75 87 90 78 93 83 103 96 93
9 8 4 18 15 26 27 25 37 44 50 50 55 57 66 79 84 86 87 100 104 99 95 92 87 80 73 62 61 35 19 34 49 57 58 75 88 81 86 87 75 98 99 90
5 8 10 19 24 33 41 44 42 43 46 49 51 62 69 77 84 86 89 94 93 98 98 99 96 91 80 70 63 57 40 7 21 46 59 69 70 65 71 88 100 100 100 86
10 8 6 21 24 28 38 46 56 57 55 52 58 62 65 70 80 84 86 93 96 95 95 95 96 91 93 81 71 73 69 56 33 24 13 36 42 47 59 70 89 87 79 83
8 6 3 19 24 25 33 41 48 59 64 60 62 56 57 72 76 76 87 89 93 93 94 94 92 94 93 90 84 71 68 75 70 50 39 19 2 16 31 51 76 70 74 61
6 15 16 22 21 26 29 37 41 49 57 58 59 61 62 63 70 73 81 84 89 91 91 92 92 90 91 90 85 82 77 67 55 49 54 54 45 31 22 25 27 21 11 8
16 16 13 18 21 24 23 25 31 40 50 56 55 60 64 66 72 78 80 78 80 83 85 87 88 88 84 83 82 79 75 73 70 61 49 53 49 50 47 43 38 33 27 21
11 14 17 19 18 21 21 24 28 34 41 51 56 59 64 66 69 70 72 75 75 76 81 83 83 84 80 77 76 79 77 71 66 64 64 56 45 42 38 38 37 26 18 15
9 17 20 22 23 21 27 30 28 30 35 42 48 54 56 56 57 63 68 73 78 80 77 76 76 77 75 73 72 69 68 66 67 63 60 58 55 55 51 48 45 42 34 22
3 10 14 18 23 24 25 26 24 23 28 34 40 47 54 55 54 57 61 64 66 67 67 69 69 69 69 69 68 67 64 61 60 61 62 60 56 55 52 47 46 45 42 34
1 8 8 15 16 16 24 23 25 25 22 28 34 40 49 53 53 54 56 58 59 60 62 63 61 61 62 62 62 61 60 58 56 54 50 53 53 50 51 50 47 43 39 33
6 6 8 13 16 15 22 18 25 25 23 24 27 35 44 48 51 52 54 58 60 62 61 59 58 56 56 56 56 55 55 53 50 48 45 39 40 43 45 45 44 42 40 38
12 7 9 12 15 15 20 20 23 23 20 20 24 29 36 41 46 49 52 56 60 57 55 55 53 52 54 54 52 50 50 50 49 47 45 41 38 35 32 33 36 37 36 35
14 9 7 12 15 13 16 20 24 23 18 17 20 25 32 36 40 41 45 54 57 54 52 52 52 52 50 47 48 47 46 45 44 42 41 40 38 37 35 33 30 27 26 27
16 11 9 15 16 14 12 16 22 26 24 18 19 21 26 29 35 38 41 43 45 43 44 45 46 48 47 46 44 42 42 43 42 40 38 34 34 34 34 33 32 30 27 25
16 14 16 19 18 17 12 12 18 23 27 26 21 22 24 27 33 35 37 43 43 43 41 40 43 43 42 41 41 42 41 39 37 36 35 34 33 31 33 33 31 29 28 27
17 20 20 19 22 19 15 13 17 22 27 29 27 23 24 27 31 35 39 42 41 40 41 41 43 44 44 45 45 44 40 37 34 33 30 30 31 31 31 31 30 30 28 27
25 23 22 22 23 18 16 20 24 25 27 30 31 29 25 26 27 31 35 37 38 37 37 37 37 38 38 39 39 40 39 37 33 30 29 29 29 28 29 30 29 28 27 27
28 25 22 24 28 29 31 35 38 36 34 32 32 32 29 27 28 30 32 33 31 30 31 32 31 33 33 33 33 34 34 33 32 30 27 25 24 24 25 24 23 24 23 22
34 34 35 36 36 35 37 40 43 41 39 36 35 34 32 29 27 28 30 29 27 25 25 26 26 26 27 28 28 28 28 29 29 27 26 24 22 22 22 21 20 19 19 20
Wind_Direction_500mb
104 73 62 66 50 39 45 35 37 348 350 358 332 331 355 349 347 348 339 333 336 345 4 1 218 216 216 222 220 217 214 219 221 220 232 243 241 233 218 221 223 223 225 226
6 320 43 50 40 50 35 25 19 21 359 336 329 326 5 354 354 348 337 336 342 349 358 16 191 215 224 220 222 218 215 222 228 223 232 246 238 229 217 219 227 223 223 226
6 347 359 28 14 28 30 13 0 15 340 332 346 347 6 355 355 350 339 339 344 352 358 9 27 197 212 226 221 222 222 226 225 222 232 239 236 224 214 223 226 224 224 226
335 334 51 9 354 359 36 7 0 360 352 357 351 338 5 4 357 346 344 347 359 358 7 20 25 197 211 210 227 227 225 231 225 224 233 238 238 233 221 226 229 224 223 225
56 60 100 356 0 343 20 11 353 353 351 359 355 1 11 3 3 347 354 9 8 9 19 30 36 89 226 213 225 227 235 234 228 226 236 230 232 224 222 227 229 222 220 224
40 68 35 347 340 335 164 18 351 349 350 358 2 24 1 356 352 357 14 25 20 28 40 48 44 53 113 208 218 221 224 236 242 241 239 227 234 237 232 229 222 217 219 220
43 73 50 331 350 29 47 321 330 345 353 1 19 9 345 358 6 11 18 26 34 39 44 45 49 49 44 37 224 217 229 232 230 245 246 233 233 232 232 230 215 217 221 224
32 61 41 348 350 32 327 335 342 353 359 2 6 9 8 8 14 19 22 31 39 43 43 43 44 50 49 42 4 279 253 236 239 255 248 246 242 223 223 221 221 217 218 223
46 86 334 356 1 29 20 5 358 5 7 10 11 11 13 17 19 21 23 35 42 42 41 42 42 41 41 42 40 23 322 248 234 246 235 240 231 222 215 219 227 216 214 222
119 20 349 14 27 30 28 25 19 15 17 20 16 18 21 21 25 28 30 34 40 43 39 38 40 41 41 43 46 46 37 46 213 232 237 237 232 231 237 220 212 217 214 218
77 35 26 23 18 14 23 26 27 30 26 23 25 24 22 23 29 32 34 37 40 42 42 39 37 38 40 43 45 46 52 57 80 110 185 210 227 232 224 218 222 224 215 218
73 312 277 348 0 3 15 25 27 26 27 29 31 29 26 29 31 29 34 36 38 40 42 41 39 38 41 41 42 50 53 49 56 72 82 89 288 238 235 238 234 226 227 225
3 12 20 27 13 13 14 20 25 30 29 28 30 29 30 30 32 32 34 35 35 36 39 39 39 38 38 42 41 42 48 57 56 48 47 51 69 94 106 132 173 147 137 116
54 38 30 35 33 24 26 24 24 29 30 28 28 30 30 32 33 32 32 33 35 35 37 38 37 38 37 38 42 46 46 49 56 59 65 61 72 80 90 94 102 106 95 84
57 43 27 23 35 44 40 27 23 28 28 29 28 27 24 28 30 30 30 32 34 36 36 36 35 35 35 38 39 41 44 49 48 55 61 70 78 83 78 78 77 84 95 107
14 9 5 16 17 18 23 20 22 21 22 24 27 26 23 27 31 31 28 27 29 30 32 34 34 34 33 35 36 40 43 43 47 53 53 59 59 65 71 73 76 78 80 86
52 359 354 1 360 3 15 17 18 16 14 18 23 22 19 24 29 31 29 28 29 28 29 30 31 31 33 33 35 35 37 39 41 43 47 53 56 58 59 59 59 61 64 60
242 338 348 4 359 8 8 16 18 10 13 19 17 14 17 20 24 24 27 27 27 26 26 26 27 27 27 28 31 32 34 34 36 39 41 44 49 53 58 60 60 60 59 58
272 333 343 1 16 9 9 12 8 9 10 12 12 12 10 13 17 16 17 20 23 22 21 21 22 23 24 24 26 28 30 34 37 39 40 43 47 49 50 53 54 54 56 57
251 294 339 340 346 355 9 11 8 8 8 5 4 3 5 12 14 11 13 14 18 17 15 17 22 24 21 20 23 26 27 29 29 33 37 40 41 42 44 47 47 47 47 49
236 245 302 311 344 343 4 12 14 10 4 1 358 359 2 5 9 12 12 12 11 12 14 16 18 21 23 23 21 22 25 27 27 29 29 31 34 36 36 34 32 30 34 34
234 241 288 291 319 331 335 357 4 7 11 5 1 3 1 3 4 7 9 12 13 15 17 16 17 18 18 19 24 26 23 20 22 24 26 27 27 26 25 23 24 24 24 28
234 253 279 282 296 312 313 340 355 356 358 1 354 351 351 356 1 3 4 7 13 14 17 15 14 15 17 22 22 22 26 27 25 25 25 23 24 23 22 19 19 20 23 27
247 266 283 277 279 291 297 313 334 340 345 348 348 341 341 345 353 356 358 1 7 11 12 11 11 11 12 14 18 22 25 26 27 29 28 27 24 24 24 27 28 30 31 32
267 273 270 269 276 286 290 296 304 315 320 330 336 336 330 332 339 346 351 354 359 5 7 8 9 11 13 14 15 16 19 23 27 30 29 30 30 32 34 32 32 32 34 36
259 266 270 270 273 279 283 286 292 295 297 305 317 325 324 322 325 333 340 346 352 356 359 1 4 7 10 13 15 16 17 19 22 24 26 28 29 30 33 36 33 32 36 36
257 261 266 271 275 282 286 287 288 291 291 286 294 308 312 315 314 319 326 332 339 345 350 353 356 360 3 6 11 14 16 19 21 23 23 26 29 30 30 31 32 36 43 49
Wind_Speed_850mb
38 28 42 55 59 57 55 30 19 24 20 43 43 39 41 48 60 62 67 65 63 56 33 5 32 45 60 65 70 76 80 102 101 86 68 69 75 98 106 107 96 97 91 85
11 12 29 55 49 54 49 47 32 23 17 40 52 33 50 57 62 64 70 67 64 54 39 22 13 37 50 56 61 69 88 97 105 95 79 67 80 112 107 102 98 99 99 86
6 23 16 44 48 32 41 42 30 31 36 47 39 33 44 62 67 72 72 66 64 59 43 29 12 17 38 51 58 68 80 87 94 91 84 76 85 104 107 93 94 99 98 91
7 13 20 12 31 18 19 39 43 36 38 45 48 30 43 76 78 77 74 63 60 59 41 32 15 13 28 43 54 55 73 80 88 90 71 73 84 91 101 107 99 102 97 93
7 21 6 38 46 20 9 35 42 39 48 56 68 34 42 94 90 76 69 61 58 52 42 35 23 3 17 32 41 64 65 80 93 87 70 56 71 80 95 107 105 103 99 93
13 15 22 26 48 66 18 27 63 61 53 57 59 34 30 90 81 76 75 67 64 67 54 42 36 27 6 25 33 43 56 62 74 88 80 72 57 75 88 99 105 101 103 99
23 14 11 23 48 40 36 16 60 57 55 52 33 41 50 69 81 83 83 79 78 84 85 70 54 45 34 13 10 26 28 54 58 70 78 93 81 76 90 95 98 103 98 92
11 11 13 37 21 20 15 27 40 46 50 50 47 51 62 70 79 93 98 97 99 100 95 84 77 71 64 41 16 19 38 54 57 57 69 75 87 90 78 93 83 103 96 93
9 8 4 18 15 26 27 25 37 44 50 50 55 57 66 79 84 86 87 100 104 99 95 92 87 80 73 62 61 35 19 34 49 57 58 75 88 81 86 87 75 98 99 90
5 8 10 19 24 33 41 44 42 43 46 49 51 62 69 77 84 86 89 94 93 98 98 99 96 91 80 70 63 57 40 7 21 46 59 69 70 65 71 88 100 100 100 86
10 8 6 21 24 28 38 46 56 57 55 52 58 62 65 70 80 84 86 93 96 95 95 95 96 91 93 81 71 73 69 56 33 24 13 36 42 47 59 70 89 87 79 83
8 6 3 19 24 25 33 41 48 59 64 60 62 56 57 72 76 76 87 89 93 93 94 94 92 94 93 90 84 71 68 75 70 50 39 19 2 16 31 51 76 70 74 61
6 15 16 22 21 26 29 37 41 49 57 58 59 61 62 63 70 73 81 84 89 91 91 92 92 90 91 90 85 82 77 67 55 49 54 54 45 31 22 25 27 21 11 8
16 16 13 18 21 24 23 25 31 40 50 56 55 60 64 66 72 78 80 78 80 83 85 87 88 88 84 83 82 79 75 73 70 61 49 53 49 50 47 43 38 33 27 21
11 14 17 19 18 21 21 24 28 34 41 51 56 59 64 66 69 70 72 75 75 76 81 83 83 84 80 77 76 79 77 71 66 64 64 56 45 42 38 38 37 26 18 15
9 17 20 22 23 21 27 30 28 30 35 42 48 54 56 56 57 63 68 73 78 80 77 76 76 77 75 73 72 69 68 66 67 63 60 58 55 55 51 48 45 42 34 22
3 10 14 18 23 24 25 26 24 23 28 34 40 47 54 55 54 57 61 64 66 67 67 69 69 69 69 69 68 67 64 61 60 61 62 60 56 55 52 47 46 45 42 34
1 8 8 15 16 16 24 23 25 25 22 28 34 40 49 53 53 54 56 58 59 60 62 63 61 61 62 62 62 61 60 58 56 54 50 53 53 50 51 50 47 43 39 33
6 6 8 13 16 15 22 18 25 25 23 24 27 35 44 48 51 52 54 58 60 62 61 59 58 56 56 56 56 55 55 53 50 48 45 39 40 43 45 45 44 42 40 38
12 7 9 12 15 15 20 20 23 23 20 20 24 29 36 41 46 49 52 56 60 57 55 55 53 52 54 54 52 50 50 50 49 47 45 41 38 35 32 33 36 37 36 35
14 9 7 12 15 13 16 20 24 23 18 17 20 25 32 36 40 41 45 54 57 54 52 52 52 52 50 47 48 47 46 45 44 42 41 40 38 37 35 33 30 27 26 27
16 11 9 15 16 14 12 16 22 26 24 18 19 21 26 29 35 38 41 43 45 43 44 45 46 48 47 46 44 42 42 43 42 40 38 34 34 34 34 33 32 30 27 25
16 14 16 19 18 17 12 12 18 23 27 26 21 22 24 27 33 35 37 43 43 43 41 40 43 43 42 41 41 42 41 39 37 36 35 34 33 31 33 33 31 29 28 27
17 20 20 19 22 19 15 13 17 22 27 29 27 23 24 27 31 35 39 42 41 40 41 41 43 44 44 45 45 44 40 37 34 33 30 30 31 31 31 31 30 30 28 27
25 23 22 22 23 18 16 20 24 25 27 30 31 29 25 26 27 31 35 37 38 37 37 37 37 38 38 39 39 40 39 37 33 30 29 29 29 28 29 30 29 28 27 27
28 25 22 24 28 29 31 35 38 36 34 32 32 32 29 27 28 30 32 33 31 30 31 32 31 33 33 33 33 34 34 33 32 30 27 25 24 24 25 24 23 24 23 22
34 34 35 36 36 35 37 40 43 41 39 36 35 34 32 29 27 28 30 29 27 25 25 26 26 26 27 28 28 28 28 29 29 27 26 24 22 22 22 21 20 19 19 20
Wind_Direction_850mb
104 73 62 66 50 39 45 35 37 348 350 358 332 331 355 349 347 348 339 333 336 345 4 1 218 216 216 222 220 217 214 219 221 220 232 243 241 233 218 221 223 223 225 226
6 320 43 50 40 50 35 25 19 21 359 336 329 326 5 354 354 348 337 336 342 349 358 16 191 215 224 220 222 218 215 222 228 223 232 246 238 229 217 219 227 223 223 226
6 347 359 28 14 28 30 13 0 15 340 332 346 347 6 355 355 350 339 339 344 352 358 9 27 197 212 226 221 222 222 226 225 222 232 239 236 224 214 223 226 224 224 226
335 334 51 9 354 359 36 7 0 360 352 357 351 338 5 4 357 346 344 347 359 358 7 20 25 197 211 210 227 227 225 231 225 224 233 238 238 233 221 226 229 224 223 225
56 60 100 356 0 343 20 11 353 353 351 359 355 1 11 3 3 347 354 9 8 9 19 30 36 89 226 213 225 227 235 234 228 226 236 230 232 224 222 227 229 222 220 224
40 68 35 347 340 335 164 18 351 349 350 358 2 24 1 356 352 357 14 25 20 28 40 48 44 53 113 208 218 221 224 236 242 241 239 227 234 237 232 229 222 217 219 220
43 73 50 331 350 29 47 321 330 345 353 1 19 9 345 358 6 11 18 26 34 39 44 45 49 49 44 37 224 217 229 232 230 245 246 233 233 232 232 230 215 217 221 224
32 61 41 348 350 32 327 335 342 353 359 2 6 9 8 8 14 19 22 31 39 43 43 43 44 50 49 42 4 279 253 236 239 255 248 246 242 223 223 221 221 217 218 223
46 86 334 356 1 29 20 5 358 5 7 10 11 11 13 17 19 21 23 35 42 42 41 42 42 41 41 42 40 23 322 248 234 246 235 240 231 222 215 219 227 216 214 222
119 20 349 14 27 30 28 25 19 15 17 20 16 18 21 21 25 28 30 34 40 43 39 38 40 41 41 43 46 46 37 46 213 232 237 237 232 231 237 220 212 217 214 218
77 35 26 23 18 14 23 26 27 30 26 23 25 24 22 23 29 32 34 37 40 42 42 39 37 38 40 43 45 46 52 57 80 110 185 210 227 232 224 218 222 224 215 218
73 312 277 348 0 3 15 25 27 26 27 29 31 29 26 29 31 29 34 36 38 40 42 41 39 38 41 41 42 50 53 49 56 72 82 89 288 238 235 238 234 226 227 225
3 12 20 27 13 13 14 20 25 30 29 28 30 29 30 30 32 32 34 35 35 36 39 39 39 38 38 42 41 42 48 57 56 48 47 51 69 94 106 132 173 147 137 116
54 38 30 35 33 24 26 24 24 29 30 28 28 30 30 32 33 32 32 33 35 35 37 38 37 38 37 38 42 46 46 49 56 59 65 61 72 80 90 94 102 106 95 84
57 43 27 23 35 44 40 27 23 28 28 29 28 27 24 28 30 30 30 32 34 36 36 36 35 35 35 38 39 41 44 49 48 55 61 70 78 83 78 78 77 84 95 107
14 9 5 16 17 18 23 20 22 21 22 24 27 26 23 27 31 31 28 27 29 30 32 34 34 34 33 35 36 40 43 43 47 53 53 59 59 65 71 73 76 78 80 86
52 359 354 1 360 3 15 17 18 16 14 18 23 22 19 24 29 31 29 28 29 28 29 30 31 31 33 33 35 35 37 39 41 43 47 53 56 58 59 59 59 61 64 60
242 338 348 4 359 8 8 16 18 10 13 19 17 14 17 20 24 24 27 27 27 26 26 26 27 27 27 28 31 32 34 34 36 39 41 44 49 53 58 60 60 60 59 58
272 333 343 1 16 9 9 12 8 9 10 12 12 12 10 13 17 16 17 20 23 22 21 21 22 23 24 24 26 28 30 34 37 39 40 43 47 49 50 53 54 54 56 57
251 294 339 340 346 355 9 11 8 8 8 5 4 3 5 12 14 11 13 14 18 17 15 17 22 24 21 20 23 26 27 29 29 33 37 40 41 42 44 47 47 47 47 49
236 245 302 311 344 343 4 12 14 10 4 1 358 359 2 5 9 12 12 12 11 12 14 16 18 21 23 23 21 22 25 27 27 29 29 31 34 36 36 34 32 30 34 34
234 241 288 291 319 331 335 357 4 7 11 5 1 3 1 3 4 7 9 12 13 15 17 16 17 18 18 19 24 26 23 20 22 24 26 27 27 26 25 23 24 24 24 28
234 253 279 282 296 312 313 340 355 356 358 1 354 351 351 356 1 3 4 7 13 14 17 15 14 15 17 22 22 22 26 27 25 25 25 23 24 23 22 19 19 20 23 27
247 266 283 277 279 291 297 313 334 340 345 348 348 341 341 345 353 356 358 1 7 11 12 11 11 11 12 14 18 22 25 26 27 29 28 27 24 24 24 27 28 30 31 32
267 273 270 269 276 286 290 296 304 315 320 330 336 336 330 332 339 346 351 354 359 5 7 8 9 11 13 14 15 16 19 23 27 30 29 30 30 32 34 32 32 32 34 36
259 266 270 270 273 279 283 286 292 295 297 305 317 325 324 322 325 333 340 346 352 356 359 1 4 7 10 13 15 16 17 19 22 24 26 28 29 30 33 36 33 32 36 36
257 261 266 271 275 282 286 287 288 291 291 286 294 308 312 315 314 319 326 332 339 345 350 353 356 360 3 6 11 14 16 19 21 23 23 26 29 30 30 31 32 36 43 49